Tracking 31027 objects as of 19-Jul-2025
HD Live streaming from Space Station
objects crossing your sky now

SL-8 DEB

Track SL-8 DEB now!
10-day predictions


NORAD ID: 29286
Int'l Code: 1981-120Q
Perigee: 1,658.1 km
Apogee: 1,664.2 km
Inclination: 83.0 °
Period: 119.4 minutes
Semi major axis: 8032 km
RCS: 0.0083 m2 (small)
Launch date: December 17, 1981
Source: Commonwealth of Independent States (former USSR) (CIS)
Launch site: PLESETSK MISSILE AND SPACE COMPLEX (PKMTR)

Note: This is SATELLITE DEBRIS
Your satellite tracking list
FENGYUN 1C DEB
Track 1 satellite(s)




NASA's NSSDC Master Catalog

Two Line Element Set (TLE):
1 29286U 81120Q   25196.94266872  .00000129  00000-0  13818-2 0  9991
2 29286  82.9770 270.2018 0003805 111.3793  65.3226 12.06026042547073
Source of the keplerian elements: AFSPC